Temperature
9 9 9 9 9 9 9 8 8 8 8 7 7 7 7 7 7 6 6 6 5 5 5 4 4 3 3 2 2 1 1 0 -0 -0 -1 -1 -1 -1
9 9 9 9 9 9 8 8 8 7 7 7 7 7 7 6 6 6 5 5 5 5 4 4 3 3 2 2 1 1 0 -0 -1 -1 -1 -2 -2 -2
9 9 9 9 9 9 8 8 8 7 7 7 7 7 6 6 6 5 5 5 5 4 4 3 3 2 2 1 1 0 -0 -1 -1 -2 -2 -2 -2 -3
10 9 9 9 9 9 8 8 8 8 7 7 6 6 6 6 5 5 5 4 4 4 3 3 3 2 2 1 0 -0 -1 -1 -2 -2 -2 -3 -3 -3
10 9 9 9 9 9 8 8 8 7 7 7 6 6 6 5 5 5 4 4 4 3 3 3 2 2 1 1 0 -0 -1 -2 -2 -3 -3 -3 -3 -3
10 9 9 9 9 9 8 8 8 7 7 6 6 5 5 5 5 4 4 4 3 3 2 2 2 1 1 0 -0 -1 -1 -2 -2 -3 -3 -4 -4 -4
10 9 9 9 9 8 8 8 8 7 7 6 6 5 5 5 4 4 3 3 3 2 2 2 1 1 0 -0 -1 -1 -2 -2 -3 -3 -3 -4 -4 -4
10 9 9 9 9 8 8 8 7 7 6 6 5 5 5 4 4 3 2 2 1 1 1 1 1 0 -0 -1 -1 -2 -2 -3 -3 -3 -4 -4 -4 -5
9 9 9 9 8 8 8 7 7 6 6 5 5 5 4 4 3 2 2 1 1 1 1 1 0 -0 -1 -1 -2 -2 -2 -3 -3 -4 -4 -4 -5 -5
9 9 9 8 8 8 8 7 6 6 5 5 5 4 4 3 2 2 1 1 1 0 -0 -1 -1 -1 -1 -1 -2 -2 -3 -3 -3 -4 -4 -4 -5 -5
9 9 8 8 8 8 7 6 6 6 5 5 4 4 3 3 2 2 1 1 0 -0 -1 -2 -2 -2 -1 -1 -2 -3 -3 -3 -4 -4 -4 -5 -5 -5
9 8 8 8 8 7 7 6 6 5 5 4 4 3 3 2 2 1 1 -0 -1 -1 -2 -2 -2 -3 -3 -2 -2 -3 -3 -4 -4 -4 -4 -5 -5 -5
8 8 8 7 7 7 6 6 5 5 4 4 3 3 2 2 1 1 0 -1 -1 -2 -2 -3 -3 -4 -4 -4 -3 -3 -4 -4 -4 -4 -5 -5 -5 -6
8 8 8 7 7 6 6 5 5 4 4 3 3 2 2 1 1 0 -0 -1 -2 -2 -3 -3 -4 -4 -5 -5 -4 -4 -4 -4 -5 -5 -5 -5 -5 -6
8 7 7 7 6 6 5 5 4 4 3 3 2 2 1 1 0 -0 -1 -1 -2 -2 -3 -3 -4 -4 -4 -5 -5 -4 -5 -4 -5 -5 -5 -5 -5 -6
7 7 6 6 5 5 5 4 4 3 3 2 2 1 1 0 -0 -1 -1 -2 -2 -2 -3 -3 -4 -4 -4 -4 -5 -5 -5 -6 -5 -5 -5 -5 -6 -6
7 6 6 5 5 5 4 4 3 3 2 2 1 1 0 0 -1 -1 -2 -2 -3 -3 -3 -3 -4 -4 -4 -4 -5 -5 -6 -6 -6 -6 -6 -5 -6 -6
7 6 6 5 5 5 4 3 3 2 2 2 1 0 -0 -0 -1 -2 -2 -3 -3 -3 -4 -4 -4 -4 -4 -4 -5 -5 -6 -6 -6 -6 -6 -6 -5 -6
6 6 6 5 5 4 4 3 3 2 2 1 1 -0 -1 -1 -2 -2 -3 -3 -3 -4 -4 -4 -5 -5 -5 -6 -5 -5 -6 -6 -6 -6 -6 -6 -6 -6
6 6 5 5 5 4 3 3 3 2 1 1 0 -0 -1 -1 -2 -2 -3 -3 -4 -4 -4 -5 -5 -5 -6 -6 -6 -5 -6 -6 -6 -6 -6 -6 -5 -5
6 5 5 5 4 4 3 3 2 2 1 0 -0 -1 -1 -2 -2 -3 -3 -4 -4 -4 -5 -5 -5 -6 -6 -6 -6 -6 -5 -6 -6 -6 -6 -6 -6 -5
5 5 5 4 4 3 3 2 2 1 0 -0 -1 -1 -2 -2 -3 -3 -4 -4 -4 -5 -5 -5 -5 -6 -6 -6 -6 -6 -5 -5 -6 -6 -6 -7 -7 -7
5 5 4 4 4 3 3 2 1 1 0 -0 -1 -1 -2 -2 -3 -4 -4 -4 -5 -5 -5 -5 -5 -6 -6 -6 -6 -6 -6 -6 -6 -6 -6 -6 -6 -6
Wind_Speed
14 13 10 8 7 7 6 6 5 4 5 4 4 4 4 4 3 5 6 7 8 9 10 10 11 12 13 13 14 15 16 16 17 18 19 20 21 21
12 13 12 8 7 7 6 6 6 6 5 3 3 2 2 3 3 5 6 6 7 8 9 10 11 11 12 12 13 14 15 15 16 18 19 20 20 21
13 13 13 11 8 7 7 6 6 6 7 5 3 2 3 3 3 4 5 5 5 7 9 9 10 11 11 12 12 13 14 15 16 17 18 19 20 21
15 14 14 11 11 8 7 8 7 7 6 7 4 3 4 3 4 4 4 5 6 6 8 9 10 10 11 12 12 13 14 14 16 17 17 18 19 20
15 15 14 13 13 10 9 8 7 6 6 5 4 2 2 2 3 4 4 4 5 6 7 8 9 10 11 11 11 12 13 14 15 15 16 17 18 20
14 14 14 14 13 12 9 9 7 6 6 5 4 3 2 2 2 3 4 3 4 5 6 8 8 9 10 10 10 10 11 13 14 15 16 17 18 19
13 13 12 13 13 10 8 9 8 6 5 5 4 3 3 1 2 2 4 4 5 3 5 6 6 6 7 7 8 9 11 12 13 15 16 17 18 19
13 12 12 12 12 12 11 10 10 8 7 6 5 5 4 3 2 2 2 3 3 2 5 6 5 6 6 6 8 10 11 12 13 15 16 17 18 18
13 12 9 10 12 11 10 9 8 6 6 6 6 5 4 3 2 2 3 4 4 4 4 5 5 6 6 7 8 9 11 12 14 15 16 17 17 18
13 13 12 12 12 11 10 8 6 5 5 4 3 2 1 1 2 2 2 3 4 2 3 3 5 7 7 7 6 9 11 13 14 15 16 16 17 18
11 12 12 12 14 15 11 9 7 5 5 5 4 4 4 3 2 1 1 2 2 2 2 3 4 7 6 5 6 9 11 12 13 14 15 15 17 18
9 10 13 13 16 17 12 11 9 7 6 6 4 4 3 4 3 1 0 1 2 2 2 3 4 5 4 4 6 8 9 11 13 13 13 15 16 13
10 9 9 16 17 16 12 9 10 9 7 6 4 3 2 1 1 1 1 1 2 2 2 2 3 4 4 5 6 6 7 8 9 10 11 14 15 12
10 9 10 17 16 15 11 11 13 10 6 5 4 3 2 1 1 1 1 2 2 3 4 3 3 4 5 6 6 6 8 8 8 8 9 13 13 13
9 13 15 18 16 12 13 15 11 7 6 5 4 3 2 1 1 1 2 2 2 3 3 4 4 5 5 6 6 7 8 8 7 8 9 9 9 9
11 14 17 16 12 11 11 9 6 5 5 5 4 3 3 2 1 1 1 2 2 2 3 4 5 5 6 7 7 8 8 7 8 9 10 9 9 8
13 10 9 9 8 7 6 6 5 5 5 4 4 4 3 2 1 1 1 1 2 3 4 4 6 6 7 7 6 7 8 8 8 9 10 10 9 8
15 11 10 9 9 8 8 6 5 5 5 5 4 4 3 2 1 0 1 1 2 3 4 5 6 5 4 4 5 7 7 8 8 9 9 9 10 9
11 10 10 9 9 8 8 7 6 5 5 5 4 4 3 2 2 1 0 1 2 3 3 4 4 4 5 6 4 4 6 8 9 9 8 8 9 10
9 10 9 9 9 8 8 7 6 6 5 5 4 4 3 3 2 1 0 1 2 3 3 3 3 4 4 5 5 6 9 8 8 9 9 9 9 10
9 8 9 9 8 8 8 7 7 6 6 5 5 4 3 3 2 1 1 1 2 2 3 4 4 6 5 4 5 6 7 8 9 8 8 8 8 7
9 9 9 9 9 9 8 8 7 7 7 5 5 4 3 3 2 2 1 1 1 2 4 4 4 4 3 4 6 8 8 9 9 9 8 7 5 5
9 9 9 9 9 9 8 9 9 7 6 5 5 4 4 3 2 1 1 1 1 2 3 4 4 3 4 5 6 7 9 10 8 8 7 9 10 12
Wind_Direction
207 208 210 210 209 212 215 218 230 251 257 232 218 208 224 248 265 267 270 277 278 282 286 290 294 298 301 304 306 308 313 317 318 319 319 321 323 325
203 204 207 207 204 205 210 217 225 238 253 249 236 220 225 252 266 273 276 284 277 284 289 293 296 299 301 302 304 308 314 317 319 319 320 321 323 324
199 202 205 203 200 201 203 208 214 223 242 253 245 235 241 259 269 277 283 287 286 286 290 295 298 300 300 301 305 309 313 316 317 318 319 321 322 323
199 200 203 200 202 200 199 205 210 215 229 247 249 238 252 267 280 280 286 290 292 292 289 294 296 297 298 301 305 309 312 315 316 317 319 321 322 322
199 200 200 198 201 200 199 203 206 208 219 233 247 241 254 276 286 285 289 295 299 297 292 295 294 296 298 301 305 309 313 315 316 318 319 321 322 322
199 199 199 200 202 199 198 202 199 200 206 220 235 238 250 276 282 291 296 302 302 298 298 300 296 296 296 299 305 310 314 317 318 319 320 322 323 322
195 197 199 199 198 194 191 193 191 195 197 210 224 228 235 257 272 286 292 310 302 297 310 303 299 297 300 298 302 312 316 319 320 320 321 321 321 321
191 193 193 191 190 188 184 183 185 193 199 204 216 227 237 241 260 284 303 314 299 319 313 303 301 302 306 304 307 309 315 319 320 321 321 320 320 320
188 187 185 186 184 188 182 172 178 186 197 203 212 225 229 225 231 266 281 294 295 323 314 295 306 306 309 304 302 305 314 319 320 319 319 319 319 320
186 185 183 182 183 178 174 173 179 187 195 202 211 213 198 192 216 256 282 295 303 310 323 289 310 313 312 299 295 302 311 315 317 318 318 320 320 320
181 182 181 180 171 165 166 165 165 165 144 141 131 112 107 110 118 104 30 325 304 304 330 302 310 319 308 295 300 305 307 310 315 317 319 321 323 322
174 177 178 174 166 165 172 170 172 173 156 146 138 124 111 109 115 114 184 303 310 290 334 314 311 329 310 301 311 310 308 311 315 316 318 322 326 323
172 174 175 166 163 166 170 174 170 159 154 151 148 140 125 112 88 52 16 296 283 275 304 317 304 310 297 302 307 309 314 316 316 315 316 322 324 322
170 169 164 159 160 161 164 155 148 144 145 147 148 151 149 129 79 31 6 339 315 281 273 289 280 290 297 299 298 310 317 316 315 315 318 321 318 317
158 154 150 150 151 155 152 149 148 150 150 151 158 156 137 122 96 46 22 10 340 313 277 288 287 286 283 279 288 301 312 313 313 317 319 318 316 317
140 138 137 138 140 142 146 149 151 153 154 153 148 134 124 122 107 40 348 341 330 327 325 315 302 290 285 283 284 292 303 305 312 318 319 315 312 311
142 138 142 145 149 147 143 142 145 146 144 141 141 136 133 127 97 53 358 330 323 320 326 331 325 305 281 274 285 293 304 309 313 319 320 316 315 315
143 148 154 158 160 159 155 150 150 151 149 146 146 145 148 148 136 95 357 327 317 320 324 331 336 335 319 278 248 286 303 312 316 317 315 314 314 318
149 155 159 162 159 157 158 157 157 151 148 148 149 149 148 150 150 150 325 329 325 322 322 326 334 338 330 326 308 264 302 313 315 315 315 312 308 312
156 158 160 159 157 158 158 154 147 145 147 150 150 151 155 158 159 165 238 317 318 322 323 323 325 322 309 306 302 295 296 302 310 311 314 313 306 299
158 156 155 155 154 154 152 150 149 151 151 153 154 155 159 158 161 175 235 290 317 319 314 312 317 316 301 290 296 303 309 309 303 297 306 313 316 318
155 154 153 152 152 152 150 149 147 149 153 157 157 158 160 161 164 179 218 270 302 311 310 314 323 322 316 307 312 314 318 323 319 306 286 279 299 316
155 153 151 152 152 151 151 151 151 154 157 158 158 159 160 160 165 178 201 276 317 327 327 328 332 330 320 311 315 319 323 328 331 332 328 323 312 299
Height
1498 1501 1504 1506 1508 1510 1511 1512 1514 1513 1512 1511 1510 1508 1507 1506 1504 1502 1500 1498 1495 1493 1490 1487 1484 1481 1478 1475 1472 1468 1465 1461 1457 1454 1450 1446 1442 1438
1493 1496 1499 1501 1503 1505 1506 1507 1508 1509 1509 1508 1506 1505 1504 1502 1500 1498 1496 1494 1491 1489 1486 1483 1480 1477 1474 1470 1467 1464 1460 1457 1453 1449 1445 1442 1438 1434
1487 1490 1493 1496 1498 1500 1501 1502 1503 1504 1504 1503 1502 1501 1500 1498 1496 1494 1492 1490 1487 1485 1482 1479 1475 1472 1469 1466 1462 1459 1455 1452 1448 1444 1441 1437 1434 1430
1481 1485 1488 1490 1492 1494 1496 1497 1498 1499 1499 1499 1498 1497 1496 1494 1492 1490 1488 1486 1483 1480 1478 1474 1471 1468 1465 1461 1458 1454 1451 1447 1444 1440 1437 1433 1429 1426
1476 1479 1482 1485 1487 1489 1491 1492 1493 1494 1494 1494 1494 1493 1491 1490 1488 1486 1484 1482 1479 1476 1473 1470 1467 1464 1460 1456 1453 1450 1446 1443 1439 1436 1432 1429 1425 1421
1470 1473 1476 1479 1482 1484 1485 1487 1488 1489 1490 1490 1489 1488 1487 1485 1484 1482 1480 1478 1476 1473 1470 1467 1463 1460 1456 1452 1449 1446 1442 1439 1435 1432 1428 1425 1421 1417
1464 1468 1471 1474 1477 1479 1481 1482 1484 1484 1485 1485 1484 1484 1482 1481 1480 1478 1476 1474 1471 1469 1466 1463 1460 1456 1452 1448 1445 1442 1439 1435 1431 1428 1424 1420 1417 1413
1459 1462 1466 1469 1471 1474 1476 1477 1479 1480 1480 1480 1480 1479 1478 1478 1477 1475 1473 1470 1467 1466 1462 1460 1456 1452 1449 1445 1442 1439 1435 1431 1428 1424 1420 1416 1413 1409
1453 1457 1460 1463 1466 1469 1471 1472 1474 1475 1476 1477 1476 1475 1475 1474 1473 1471 1469 1467 1465 1462 1459 1455 1453 1449 1446 1442 1439 1435 1431 1427 1424 1420 1416 1412 1409 1405
1448 1452 1455 1458 1461 1463 1466 1467 1469 1470 1471 1472 1472 1472 1471 1471 1469 1468 1466 1464 1462 1459 1456 1453 1449 1446 1442 1439 1436 1432 1428 1424 1421 1417 1413 1409 1405 1401
1443 1447 1450 1453 1456 1459 1461 1463 1465 1466 1467 1468 1468 1468 1468 1467 1466 1465 1463 1461 1458 1456 1454 1450 1446 1442 1439 1436 1433 1429 1425 1422 1417 1413 1409 1405 1401 1397
1438 1442 1446 1449 1452 1454 1457 1459 1460 1462 1463 1463 1464 1464 1464 1463 1462 1461 1460 1458 1455 1453 1451 1448 1444 1440 1436 1433 1430 1426 1422 1419 1415 1411 1407 1403 1398 1394
1433 1437 1441 1444 1448 1450 1453 1455 1457 1458 1459 1460 1460 1461 1460 1460 1459 1458 1457 1455 1453 1451 1449 1446 1442 1439 1436 1431 1427 1424 1420 1416 1412 1408 1404 1400 1396 1392
1428 1433 1437 1440 1444 1447 1449 1451 1453 1455 1456 1457 1457 1457 1457 1457 1456 1455 1454 1452 1450 1449 1446 1444 1441 1438 1434 1429 1425 1421 1418 1414 1410 1406 1402 1398 1394 1390
1425 1430 1433 1437 1440 1443 1445 1448 1450 1451 1452 1453 1454 1454 1454 1454 1453 1452 1451 1449 1447 1446 1444 1441 1439 1435 1432 1428 1424 1420 1416 1412 1408 1404 1400 1395 1391 1388
1421 1426 1430 1434 1437 1440 1442 1444 1446 1448 1449 1450 1451 1452 1452 1451 1450 1449 1448 1446 1445 1443 1441 1439 1436 1433 1429 1426 1423 1419 1415 1411 1406 1402 1398 1394 1390 1386
1417 1421 1425 1429 1432 1435 1438 1440 1443 1445 1446 1447 1448 1449 1448 1448 1448 1447 1446 1444 1443 1440 1438 1436 1433 1430 1427 1424 1420 1417 1413 1410 1405 1401 1396 1392 1388 1385
1413 1417 1421 1425 1428 1431 1434 1437 1439 1441 1443 1445 1445 1446 1446 1445 1445 1444 1443 1442 1440 1438 1436 1433 1430 1427 1425 1421 1420 1415 1412 1408 1404 1399 1395 1390 1387 1384
1410 1413 1418 1421 1425 1428 1431 1434 1436 1439 1440 1442 1443 1443 1443 1443 1443 1442 1441 1440 1438 1436 1434 1432 1429 1426 1423 1420 1417 1415 1410 1405 1401 1398 1394 1390 1386 1382
1406 1410 1414 1418 1422 1425 1428 1431 1434 1436 1438 1439 1440 1441 1441 1441 1440 1440 1439 1438 1436 1435 1433 1431 1428 1425 1422 1420 1416 1413 1409 1404 1400 1396 1392 1389 1385 1382
1403 1407 1411 1415 1419 1422 1425 1428 1431 1433 1435 1436 1437 1438 1438 1439 1438 1438 1437 1436 1435 1433 1431 1429 1427 1425 1422 1419 1415 1411 1408 1404 1400 1396 1391 1387 1384 1380
1400 1404 1408 1413 1416 1420 1423 1425 1428 1430 1432 1434 1435 1436 1436 1436 1436 1436 1435 1434 1433 1431 1430 1428 1426 1423 1421 1418 1414 1410 1407 1404 1400 1396 1392 1389 1385 1381
1397 1402 1406 1410 1413 1417 1420 1423 1425 1427 1429 1431 1432 1433 1434 1434 1434 1434 1433 1433 1432 1430 1428 1426 1424 1422 1420 1417 1414 1410 1406 1403 1399 1396 1393 1390 1387 1383